Grand Island, NE

7:37 AM CST on January 23, 2017 (GMT -0600)
Central Nebraska Regional

Weather History for KGRI - July, 2013

Change the Weather History Date:

Monday, July 29, 2013

  Actual Average Record
Temperature  
Mean Temperature 63 °F 76 °F  
Max Temperature 66 °F 87 °F 105 °F (1947)
Min Temperature 60 °F 65 °F 52 °F (1991)
Degree Days  
Heating Degree Days 2 0  
Month to date heating degree days 3 0  
Since 1 June heating degree days 24 24  
Since 1 July heating degree days 3 0  
Cooling Degree Days 0 11  
Month to date cooling degree days 347 328  
Year to date cooling degree days 701 606  
Since 1 June cooling degree days 606 541  
Growing Degree Days 13 (Base 50)    
Moisture  
Dew Point 61 °F    
Average Humidity 84    
Maximum Humidity 100    
Minimum Humidity 67    
Precipitation  
Precipitation 0.43 in 0.11 in 4.23 in (2007)
Month to date precipitation 1.39 3.18  
Year to date precipitation 16.39 17.43  
Snow  
Snow 0.00 in 0.00 in - ()
Month to date snowfall 0.0 0.0  
Since 1 June snowfall 0.0 0.0  
Since 1 July snowfall 0.0 0.0  
Snow Depth 0.00 in    
Sea Level Pressure  
Sea Level Pressure 30.02 in    
Wind  
Wind Speed 6 mph (SE)    
Max Wind Speed 15 mph    
Max Gust Speed 20 mph    
Visibility 6 miles    
Events Fog , Rain    
T = Trace of Precipitation, MM = Missing Value Source: NWS Daily Summary

Daily Weather History Graph

Daily Weather History Graph

Search for Another Location

Airport or City:

Trip Planner

Search our weather history database for the weather conditions in past years. The results will help you decide how hot, cold, wet, or windy it might be!

Date:

Astronomy

Jul. 29, 2013 Rise Set
Actual Time 6:26 AM CDT 8:52 PM CDT
Civil Twilight 5:55 AM CDT 9:23 PM CDT
Nautical Twilight 5:16 AM CDT 10:01 PM CDT
Astronomical Twilight 4:33 AM CDT 10:44 PM CDT
Moon 12:11 AM CDT (7/29) 2:14 PM CDT (7/29)
Length of Visible Light 15h 27m
Length of Day
14h 25m
Waning Gibbous, 50% of the Moon is Illuminated
Jul 29
Waning Gibbous
Jul 29
Last Quarter
Aug 6
New
Aug 14
First Quarter
Aug 20
Full

Hourly Weather History & Observations

Time (CDT) Temp. Dew Point Humidity Pressure Visibility Wind Dir Wind Speed Gust Speed Precip Events Conditions
12:19 AM 64.4 °F 53.6 °F 68% 30.05 in 10.0 mi SSE 8.1 mph - N/A   Overcast
12:53 AM 64.0 °F 54.0 °F 70% 30.02 in 10.0 mi SE 5.8 mph - N/A   Overcast
1:53 AM 64.0 °F 55.9 °F 75% 30.01 in 10.0 mi SE 5.8 mph - 0.00 in   Overcast
2:53 AM 63.0 °F 57.0 °F 81% 30.01 in 10.0 mi ESE 5.8 mph - N/A   Overcast
3:19 AM 62.6 °F 59.0 °F 88% 30.04 in 4.0 mi SE 5.8 mph - 0.03 in Rain Rain
3:31 AM 60.8 °F 59.0 °F 94% 30.04 in 6.0 mi SE 4.6 mph - 0.07 in Rain Light Rain
3:42 AM 60.8 °F 59.0 °F 94% 30.04 in 4.0 mi SE 4.6 mph - 0.10 in Rain Rain
3:53 AM 61.0 °F 60.1 °F 97% 30.01 in 7.0 mi ESE 5.8 mph - 0.12 in Rain Light Rain
4:32 AM 60.8 °F 59.0 °F 94% 30.02 in 7.0 mi East 8.1 mph - 0.01 in Rain Light Rain
4:53 AM 60.1 °F 59.0 °F 96% 29.99 in 5.0 mi East 9.2 mph - 0.03 in Rain Light Rain
5:08 AM 60.8 °F 60.8 °F 100% 30.02 in 5.0 mi ESE 8.1 mph - 0.01 in Rain Light Rain
5:31 AM 60.8 °F 60.8 °F 100% 30.02 in 2.5 mi ESE 4.6 mph - 0.10 in Rain Rain
5:38 AM 60.8 °F 60.8 °F 100% 30.02 in 4.0 mi Calm Calm - 0.11 in Rain Light Rain
5:53 AM 61.0 °F 60.1 °F 97% 30.00 in 3.0 mi East 3.5 mph - 0.14 in Rain Light Rain
6:53 AM 62.1 °F 61.0 °F 96% 30.00 in 4.0 mi ESE 5.8 mph - 0.09 in Rain Light Rain
7:53 AM 62.1 °F 61.0 °F 96% 30.00 in 5.0 mi SE 5.8 mph - 0.02 in   Overcast
8:53 AM 63.0 °F 62.1 °F 97% 30.01 in 5.0 mi SE 9.2 mph - N/A   Overcast
9:53 AM 64.0 °F 63.0 °F 96% 30.00 in 8.0 mi SSE 10.4 mph - 0.01 in   Overcast
10:53 AM 66.0 °F 63.0 °F 90% 29.99 in 10.0 mi SSE 13.8 mph - N/A   Overcast
11:53 AM 66.0 °F 63.0 °F 90% 29.98 in 10.0 mi SSE 11.5 mph 18.4 mph N/A   Overcast
12:53 PM 64.9 °F 63.0 °F 93% 29.99 in 10.0 mi SE 10.4 mph - N/A   Overcast
1:53 PM 64.9 °F 63.0 °F 93% 30.00 in 10.0 mi SSE 9.2 mph - N/A   Overcast
2:53 PM 64.9 °F 63.0 °F 93% 30.00 in 8.0 mi SE 9.2 mph - N/A   Overcast
3:53 PM 64.9 °F 63.0 °F 93% 30.01 in 7.0 mi SSE 5.8 mph - N/A   Overcast
4:53 PM 64.9 °F 63.0 °F 93% 30.00 in 5.0 mi SE 4.6 mph - N/A   Overcast
5:53 PM 64.9 °F 64.0 °F 97% 29.99 in 5.0 mi ESE 6.9 mph - N/A   Overcast
6:53 PM 66.0 °F 64.0 °F 93% 29.99 in 7.0 mi East 4.6 mph - N/A   Overcast
7:14 PM 64.4 °F 64.4 °F 100% 30.01 in 2.0 mi ESE 5.8 mph - N/A   Overcast
7:53 PM 64.9 °F 64.0 °F 97% 30.00 in 4.0 mi ESE 6.9 mph - N/A   Overcast
8:53 PM 64.9 °F 64.0 °F 97% 30.03 in 4.0 mi Calm Calm - 0.01 in Rain Light Rain
9:53 PM 64.9 °F 64.9 °F 100% 30.04 in 6.0 mi Calm Calm - 0.01 in   Overcast
10:14 PM 64.4 °F 64.4 °F 100% 30.07 in 2.5 mi Calm Calm - N/A   Overcast
10:26 PM 64.4 °F 64.4 °F 100% 30.07 in 1.2 mi Calm Calm - N/A   Overcast
10:40 PM 64.4 °F 64.4 °F 100% 30.07 in 0.8 mi Calm Calm - N/A   Overcast
10:53 PM 64.9 °F 64.9 °F 100% 30.04 in 0.5 mi East 3.5 mph - N/A Fog Fog
11:53 PM 64.9 °F 64.9 °F 100% 30.03 in 0.5 mi NE 3.5 mph - N/A Fog Fog